Location: Unspecified
(0.0000°N, 0.0000°E)
Time: 22:55:08
(UTC+00:00)

Envisat - Pass Details

Date: 15 January 2019
Orbit: 764 x 766 km, 98.2° (Epoch: 19 January)

Event Time Altitude Azimuth Distance (km) Brightness Sun altitude
Rises 19:13:38 0° 169° (S) 3,231 6.4 -14.9°
Reaches altitude 10° 19:15:56 10° 170° (S) 2,302 5.6 -15.5°
Maximum altitude 19:21:01 84° 257° (WSW) 772 3.0 -16.7°
Drops below altitude 10° 19:26:04 10° 346° (NNW) 2,291 5.4 -17.8°
Sets 19:28:22 0° 347° (NNW) 3,214 6.1 -18.4°
